nws-alerts: Checking more than four warning/county codes can delay the loading of your pages. You should use a cron job to get the data.
EllijayWeather Station Historical Data
Daily Summary for November 20, 2018 Units:  English    Metric   Both
Daily Weekly Monthly Yearly Custom
  High: Low: Average:
Temperature: 52.3 °F 38.5 °F 46.4 °F
Dew Point: 40.3 °F 30.2 °F 34.8 °F
Humidity: 77% 44% 65%
Wind Speed: 6.0mph 0.0mph 0.4mph
Wind Gust: 14.0mph - -
Wind- - West
Pressure: 30.27 in 30.09 in -
Precipitation: 0.01 in    
Historical Graphs
 
 
Tabular Data for November 20, 2018
Time Temperature Dew Point Pressure Wind Wind Speed Wind Gust Humidity Rainfall Rate (Hourly) solar
00:04 52.2 °F 31.5 °F 30.13 in Calm     45% 0.00 in meteobridge W/m2
00:09 52.2 °F 31.5 °F 30.13 in Calm     45% 0.00 in meteobridge W/m2
00:14 52.2 °F 31.5 °F 30.12 in Calm     45% 0.00 in meteobridge W/m2
00:19 52.3 °F 31.6 °F 30.12 in Calm     45% 0.00 in meteobridge W/m2
00:24 52.3 °F 31.6 °F 30.12 in Calm     45% 0.00 in meteobridge W/m2
00:29 52.3 °F 31.1 °F 30.13 in Calm     44% 0.00 in meteobridge W/m2
00:34 52.2 °F 30.9 °F 30.12 in Calm     44% 0.00 in meteobridge W/m2
00:39 52.3 °F 31.1 °F 30.12 in Calm     44% 0.00 in meteobridge W/m2
00:44 52.3 °F 31.1 °F 30.12 in Calm     44% 0.00 in meteobridge W/m2
00:49 52.3 °F 31.1 °F 30.12 in Calm     44% 0.00 in meteobridge W/m2
00:54 52.2 °F 30.9 °F 30.12 in Calm     44% 0.00 in meteobridge W/m2
00:59 52.2 °F 30.9 °F 30.12 in Calm     44% 0.00 in meteobridge W/m2
01:04 52.2 °F 30.9 °F 30.12 in Calm     44% 0.00 in meteobridge W/m2
01:08 52.3 °F 31.1 °F 30.12 in Calm     44% 0.00 in meteobridge W/m2
01:14 52.2 °F 30.9 °F 30.12 in Calm     44% 0.00 in meteobridge W/m2
01:19 52.2 °F 30.9 °F 30.12 in Calm     44% 0.00 in meteobridge W/m2
01:24 52.3 °F 31.1 °F 30.12 in Calm     44% 0.00 in meteobridge W/m2
01:29 52.2 °F 30.9 °F 30.11 in Calm     44% 0.00 in meteobridge W/m2
01:34 52.3 °F 31.1 °F 30.11 in Calm     44% 0.00 in meteobridge W/m2
01:39 52.2 °F 30.9 °F 30.12 in Calm     44% 0.00 in meteobridge W/m2
01:44 52.2 °F 30.9 °F 30.11 in Calm     44% 0.00 in meteobridge W/m2
01:49 52.3 °F 31.1 °F 30.11 in Calm     44% 0.00 in meteobridge W/m2
01:54 52.2 °F 30.9 °F 30.11 in Calm     44% 0.00 in meteobridge W/m2
01:59 52.2 °F 30.9 °F 30.11 in Calm     44% 0.00 in meteobridge W/m2
02:04 52.2 °F 30.9 °F 30.11 in Calm   1.0 mph 44% 0.00 in meteobridge W/m2
02:09 52.2 °F 30.9 °F 30.11 in Calm     44% 0.00 in meteobridge W/m2
02:14 52.2 °F 30.9 °F 30.11 in Calm     44% 0.00 in meteobridge W/m2
02:19 52.2 °F 30.9 °F 30.11 in Calm     44% 0.00 in meteobridge W/m2
02:24 52.2 °F 30.9 °F 30.11 in Calm     44% 0.00 in meteobridge W/m2
02:29 52.2 °F 30.9 °F 30.11 in Calm     44% 0.00 in meteobridge W/m2
02:34 52.0 °F 30.7 °F 30.11 in Calm   1.0 mph 44% 0.00 in meteobridge W/m2
02:39 52.0 °F 30.7 °F 30.11 in Calm     44% 0.00 in meteobridge W/m2
02:44 52.0 °F 30.7 °F 30.10 in Calm     44% 0.00 in meteobridge W/m2
02:49 52.0 °F 30.7 °F 30.11 in Calm     44% 0.00 in meteobridge W/m2
02:54 52.0 °F 30.7 °F 30.10 in Calm   1.0 mph 44% 0.00 in meteobridge W/m2
02:59 52.0 °F 30.7 °F 30.10 in Calm     44% 0.00 in meteobridge W/m2
03:04 52.0 °F 30.7 °F 30.10 in Calm     44% 0.00 in meteobridge W/m2
03:09 51.8 °F 30.6 °F 30.10 in Calm     44% 0.00 in meteobridge W/m2
03:14 51.8 °F 30.6 °F 30.10 in Calm   1.0 mph 44% 0.00 in meteobridge W/m2
03:19 51.8 °F 30.6 °F 30.09 in Calm     44% 0.00 in meteobridge W/m2
03:24 51.8 °F 30.6 °F 30.09 in Calm   1.0 mph 44% 0.00 in meteobridge W/m2
03:29 51.8 °F 30.6 °F 30.09 in Calm     44% 0.00 in meteobridge W/m2
03:34 51.8 °F 30.6 °F 30.10 in Calm   2.0 mph 44% 0.00 in meteobridge W/m2
03:39 51.6 °F 30.4 °F 30.10 in Calm   3.0 mph 44% 0.00 in meteobridge W/m2
03:44 51.6 °F 30.4 °F 30.10 in NW 0.9 mph 3.0 mph 44% 0.00 in meteobridge W/m2
03:49 51.1 °F 30.6 °F 30.11 in Calm   4.0 mph 45% 0.00 in meteobridge W/m2
03:54 50.5 °F 30.6 °F 30.11 in Calm   3.0 mph 46% 0.00 in meteobridge W/m2
03:59 50.2 °F 30.2 °F 30.11 in NE 2.0 mph 5.0 mph 46% 0.00 in meteobridge W/m2
04:04 50.0 °F 30.6 °F 30.10 in Calm     47% 0.00 in meteobridge W/m2
04:09 49.8 °F 30.4 °F 30.10 in Calm     47% 0.00 in meteobridge W/m2
04:14 49.6 °F 30.2 °F 30.11 in Calm   2.0 mph 47% 0.00 in meteobridge W/m2
04:19 49.5 °F 30.6 °F 30.11 in Calm   1.0 mph 48% 0.00 in meteobridge W/m2
04:24 49.3 °F 30.4 °F 30.11 in Calm   1.0 mph 48% 0.00 in meteobridge W/m2
04:29 49.1 °F 30.7 °F 30.10 in North 2.9 mph 4.0 mph 49% 0.00 in meteobridge W/m2
04:34 48.7 °F 30.9 °F 30.10 in Calm     50% 0.00 in meteobridge W/m2
04:39 48.6 °F 30.7 °F 30.11 in Calm   3.0 mph 50% 0.00 in meteobridge W/m2
04:42 48.6 °F 30.7 °F 30.11 in NW 2.0 mph 2.0 mph 50% 0.00 in meteobridge W/m2
04:48 48.4 °F 30.6 °F 30.11 in Calm   3.0 mph 50% 0.00 in meteobridge W/m2
04:54 48.2 °F 30.9 °F 30.11 in Calm     51% 0.00 in meteobridge W/m2
04:59 48.2 °F 30.4 °F 30.11 in Calm   2.0 mph 50% 0.00 in meteobridge W/m2
05:04 48.0 °F 30.7 °F 30.11 in Calm     51% 0.00 in meteobridge W/m2
05:09 47.8 °F 30.6 °F 30.12 in Calm   2.0 mph 51% 0.00 in meteobridge W/m2
05:14 47.7 °F 30.9 °F 30.12 in Calm     52% 0.00 in meteobridge W/m2
05:19 47.5 °F 30.7 °F 30.12 in Calm   1.0 mph 52% 0.00 in meteobridge W/m2
05:24 47.3 °F 31.1 °F 30.12 in West 0.9 mph 1.0 mph 53% 0.00 in meteobridge W/m2
05:29 47.1 °F 30.9 °F 30.12 in Calm     53% 0.00 in meteobridge W/m2
05:34 47.1 °F 31.3 °F 30.12 in Calm   1.0 mph 54% 0.00 in meteobridge W/m2
05:39 46.9 °F 31.1 °F 30.12 in Calm   1.0 mph 54% 0.00 in meteobridge W/m2
05:44 46.9 °F 31.1 °F 30.12 in Calm     54% 0.00 in meteobridge W/m2
05:49 46.9 °F 30.7 °F 30.13 in Calm     53% 0.00 in meteobridge W/m2
05:54 46.8 °F 30.6 °F 30.13 in Calm     53% 0.00 in meteobridge W/m2
05:59 46.8 °F 30.9 °F 30.13 in Calm     54% 0.00 in meteobridge W/m2
06:04 46.4 °F 31.6 °F 30.13 in Calm     56% 0.00 in meteobridge W/m2
06:09 46.2 °F 31.8 °F 30.13 in NW 2.0 mph 2.0 mph 57% 0.00 in meteobridge W/m2
06:14 46.2 °F 31.5 °F 30.14 in Calm     56% 0.00 in meteobridge W/m2
06:19 46.0 °F 31.6 °F 30.13 in Calm     57% 0.00 in meteobridge W/m2
06:24 45.9 °F 32.4 °F 30.13 in Calm   1.0 mph 59% 0.00 in meteobridge W/m2
06:29 45.7 °F 33.1 °F 30.13 in Calm   4.0 mph 61% 0.00 in meteobridge W/m2
06:34 45.5 °F 32.9 °F 30.14 in Calm   4.0 mph 61% 0.00 in meteobridge W/m2
06:39 45.3 °F 33.4 °F 30.14 in Calm   4.0 mph 63% 0.00 in meteobridge W/m2
06:44 45.1 °F 33.3 °F 30.14 in Calm     63% 0.00 in meteobridge W/m2
06:49 45.1 °F 33.3 °F 30.14 in Calm     63% 0.00 in meteobridge W/m2
06:54 45.0 °F 33.1 °F 30.14 in NW 0.9 mph 2.0 mph 63% 0.00 in meteobridge W/m2
06:59 44.6 °F 33.6 °F 30.15 in Calm   5.0 mph 65% 0.00 in meteobridge W/m2
07:04 44.2 °F 34.3 °F 30.15 in Calm     68% 0.00 in meteobridge W/m2
07:09 44.1 °F 34.2 °F 30.14 in Calm   6.0 mph 68% 0.00 in meteobridge W/m2
07:14 43.9 °F 34.3 °F 30.14 in NNE 6.0 mph 6.0 mph 69% 0.00 in meteobridge W/m2
07:19 43.5 °F 34.3 °F 30.14 in Calm   4.0 mph 70% 0.00 in meteobridge W/m2
07:24 43.3 °F 33.8 °F 30.15 in Calm   3.0 mph 69% 0.00 in meteobridge W/m2
07:29 43.2 °F 33.3 °F 30.15 in Calm   1.0 mph 68% 0.00 in meteobridge W/m2
07:34 43.0 °F 33.1 °F 30.15 in Calm     68% 0.00 in meteobridge W/m2
07:39 43.0 °F 32.7 °F 30.16 in Calm     67% 0.00 in meteobridge W/m2
07:44 43.0 °F 32.7 °F 30.16 in Calm     67% 0.00 in meteobridge W/m2
07:49 42.8 °F 32.2 °F 30.16 in Calm     66% 0.00 in meteobridge W/m2
07:54 42.8 °F 32.5 °F 30.16 in NW 0.9 mph 2.0 mph 67% 0.00 in meteobridge W/m2
07:59 42.6 °F 32.4 °F 30.16 in Calm     67% 0.00 in meteobridge W/m2
08:04 42.6 °F 32.4 °F 30.16 in Calm     67% 0.00 in meteobridge W/m2
08:09 42.4 °F 31.8 °F 30.16 in Calm     66% 0.00 in meteobridge W/m2
08:14 42.4 °F 31.5 °F 30.16 in Calm     65% 0.00 in meteobridge W/m2
08:19 42.4 °F 31.1 °F 30.17 in Calm     64% 0.00 in meteobridge W/m2
08:24 42.4 °F 31.1 °F 30.17 in Calm     64% 0.00 in meteobridge W/m2
08:29 42.6 °F 31.3 °F 30.17 in Calm     64% 0.00 in meteobridge W/m2
08:34 42.6 °F 31.3 °F 30.17 in Calm     64% 0.00 in meteobridge W/m2
08:39 42.8 °F 31.5 °F 30.17 in Calm     64% 0.00 in meteobridge W/m2
08:44 43.0 °F 32.0 °F 30.17 in Calm   2.0 mph 65% 0.00 in meteobridge W/m2
08:49 43.2 °F 32.2 °F 30.17 in Calm   4.0 mph 65% 0.00 in meteobridge W/m2
08:54 43.3 °F 32.4 °F 30.17 in Calm   1.0 mph 65% 0.00 in meteobridge W/m2
08:59 43.7 °F 33.4 °F 30.17 in Calm   5.0 mph 67% 0.00 in meteobridge W/m2
09:04 44.1 °F 34.2 °F 30.17 in Calm   1.0 mph 68% 0.00 in meteobridge W/m2
09:09 44.2 °F 35.1 °F 30.18 in NE 2.0 mph 2.0 mph 70% 0.00 in meteobridge W/m2
09:14 44.6 °F 35.8 °F 30.17 in Calm   1.0 mph 71% 0.00 in meteobridge W/m2
09:19 44.8 °F 36.7 °F 30.17 in Calm   3.0 mph 73% 0.00 in meteobridge W/m2
09:24 45.1 °F 37.0 °F 30.17 in Calm   5.0 mph 73% 0.00 in meteobridge W/m2
09:29 45.3 °F 37.6 °F 30.18 in NNW 0.9 mph 1.0 mph 74% 0.00 in meteobridge W/m2
09:34 45.3 °F 37.9 °F 30.18 in Calm   2.0 mph 75% 0.00 in meteobridge W/m2
09:39 45.7 °F 38.3 °F 30.18 in Calm   3.0 mph 75% 0.00 in meteobridge W/m2
09:40 45.7 °F 38.3 °F 30.18 in North 2.0 mph 3.0 mph 75% 0.00 in meteobridge W/m2
09:54 46.6 °F 39.0 °F 30.18 in Calm     75% 0.00 in meteobridge W/m2
09:59 46.6 °F 39.4 °F 30.18 in Calm   4.0 mph 76% 0.00 in meteobridge W/m2
10:04 46.8 °F 39.6 °F 30.19 in Calm   4.0 mph 76% 0.00 in meteobridge W/m2
10:09 47.1 °F 39.6 °F 30.19 in Calm     75% 0.00 in meteobridge W/m2
10:14 46.9 °F 39.7 °F 30.19 in Calm   4.0 mph 76% 0.00 in meteobridge W/m2
10:19 46.9 °F 39.7 °F 30.19 in West 2.9 mph 3.0 mph 76% 0.00 in meteobridge W/m2
10:24 47.1 °F 39.9 °F 30.19 in Calm   4.0 mph 76% 0.00 in meteobridge W/m2
10:29 47.5 °F 39.9 °F 30.19 in West 0.9 mph 3.0 mph 75% 0.00 in meteobridge W/m2
10:34 47.5 °F 39.9 °F 30.19 in Calm   4.0 mph 75% 0.00 in meteobridge W/m2
10:39 47.3 °F 39.4 °F 30.19 in Calm   12.0 mph 74% 0.00 in meteobridge W/m2
10:44 47.1 °F 38.8 °F 30.19 in NW 4.0 mph 4.0 mph 73% 0.00 in meteobridge W/m2
10:49 47.7 °F 39.7 °F 30.19 in Calm   1.0 mph 74% 0.00 in meteobridge W/m2
10:54 48.0 °F 40.1 °F 30.19 in West 0.9 mph 7.0 mph 74% 0.00 in meteobridge W/m2
10:59 48.0 °F 39.7 °F 30.20 in West 2.0 mph 2.0 mph 73% 0.00 in meteobridge W/m2
11:04 48.0 °F 39.0 °F 30.19 in Calm   3.0 mph 71% 0.00 in meteobridge W/m2
11:09 48.0 °F 39.7 °F 30.20 in Calm   1.0 mph 73% 0.00 in meteobridge W/m2
11:14 48.2 °F 39.6 °F 30.19 in WNW 2.0 mph 3.0 mph 72% 0.00 in meteobridge W/m2
11:19 48.6 °F 39.9 °F 30.19 in Calm   4.0 mph 72% 0.00 in meteobridge W/m2
11:24 48.6 °F 39.9 °F 30.19 in WSW 2.0 mph 6.0 mph 72% 0.00 in meteobridge W/m2
11:29 48.6 °F 39.2 °F 30.19 in NW 2.9 mph 8.0 mph 70% 0.00 in meteobridge W/m2
11:34 48.6 °F 39.6 °F 30.19 in Calm   2.0 mph 71% 0.00 in meteobridge W/m2
11:39 48.7 °F 39.7 °F 30.19 in Calm     71% 0.00 in meteobridge W/m2
11:44 48.7 °F 39.4 °F 30.19 in WNW 4.9 mph 7.0 mph 70% 0.00 in meteobridge W/m2
11:49 48.6 °F 38.8 °F 30.19 in Calm   8.0 mph 69% 0.00 in meteobridge W/m2
11:54 48.6 °F 39.6 °F 30.19 in WNW 2.9 mph 3.0 mph 71% 0.00 in meteobridge W/m2
11:59 48.7 °F 39.4 °F 30.19 in Calm   4.0 mph 70% 0.00 in meteobridge W/m2
12:04 48.9 °F 39.9 °F 30.19 in NW 2.9 mph 5.0 mph 71% 0.00 in meteobridge W/m2
12:09 48.9 °F 39.2 °F 30.19 in WNW 2.0 mph 5.0 mph 69% 0.00 in meteobridge W/m2
12:14 48.6 °F 38.8 °F 30.19 in Calm   6.0 mph 69% 0.00 in meteobridge W/m2
12:19 48.6 °F 39.2 °F 30.19 in Calm   3.0 mph 70% 0.00 in meteobridge W/m2
12:24 48.7 °F 39.7 °F 30.19 in Calm   3.0 mph 71% 0.00 in meteobridge W/m2
12:29 48.7 °F 39.7 °F 30.19 in Calm   4.0 mph 71% 0.00 in meteobridge W/m2
12:34 48.7 °F 39.7 °F 30.19 in Calm   4.0 mph 71% 0.00 in meteobridge W/m2
12:39 48.6 °F 39.2 °F 30.18 in West 2.0 mph 14.0 mph 70% 0.00 in meteobridge W/m2
12:44 48.4 °F 39.4 °F 30.18 in Calm   5.0 mph 71% 0.00 in meteobridge W/m2
12:49 48.4 °F 39.7 °F 30.18 in NW 4.9 mph 7.0 mph 72% 0.00 in meteobridge W/m2
12:54 48.6 °F 39.6 °F 30.18 in NW 0.9 mph 4.0 mph 71% 0.01 in meteobridge W/m2
12:59 48.7 °F 39.4 °F 30.18 in Calm   3.0 mph 70% 0.01 in meteobridge W/m2
13:04 48.7 °F 39.4 °F 30.18 in WNW 4.0 mph 6.0 mph 70% 0.01 in meteobridge W/m2
13:09 48.7 °F 39.4 °F 30.18 in Calm   4.0 mph 70% 0.01 in meteobridge W/m2
13:14 48.7 °F 39.7 °F 30.18 in Calm   9.0 mph 71% 0.01 in meteobridge W/m2
13:19 48.7 °F 39.4 °F 30.18 in Calm   6.0 mph 70% 0.01 in meteobridge W/m2
13:24 48.4 °F 39.0 °F 30.18 in Calm   3.0 mph 70% 0.01 in meteobridge W/m2
13:29 48.0 °F 38.7 °F 30.18 in WNW 4.0 mph 6.0 mph 70% 0.01 in meteobridge W/m2
13:34 48.2 °F 39.2 °F 30.18 in Calm   7.0 mph 71% 0.01 in meteobridge W/m2
13:39 48.6 °F 39.2 °F 30.17 in NNW 2.0 mph 6.0 mph 70% 0.01 in meteobridge W/m2
13:44 48.7 °F 39.7 °F 30.17 in Calm   3.0 mph 71% 0.01 in meteobridge W/m2
13:49 49.1 °F 39.7 °F 30.17 in Calm   2.0 mph 70% 0.01 in meteobridge W/m2
13:54 49.3 °F 39.6 °F 30.17 in NNE 2.0 mph 4.0 mph 69% 0.00 in meteobridge W/m2
13:59 49.5 °F 39.7 °F 30.17 in NW 0.9 mph 2.0 mph 69% 0.00 in meteobridge W/m2
14:04 49.3 °F 39.2 °F 30.17 in Calm   4.0 mph 68% 0.00 in meteobridge W/m2
14:09 49.5 °F 40.1 °F 30.17 in Calm   2.0 mph 70% 0.00 in meteobridge W/m2
14:14 49.5 °F 40.1 °F 30.17 in Calm   2.0 mph 70% 0.00 in meteobridge W/m2
14:19 49.5 °F 39.7 °F 30.17 in WNW 0.9 mph 1.0 mph 69% 0.00 in meteobridge W/m2
14:24 49.6 °F 39.9 °F 30.17 in Calm   5.0 mph 69% 0.00 in meteobridge W/m2
14:29 49.8 °F 40.1 °F 30.17 in Calm     69% 0.00 in meteobridge W/m2
14:34 50.2 °F 40.1 °F 30.17 in NNE 2.0 mph 9.0 mph 68% 0.00 in meteobridge W/m2
14:39 50.4 °F 40.3 °F 30.17 in Calm   2.0 mph 68% 0.00 in meteobridge W/m2
14:44 50.4 °F 39.7 °F 30.17 in NW 4.0 mph 10.0 mph 67% 0.00 in meteobridge W/m2
14:49 50.2 °F 39.6 °F 30.17 in Calm   1.0 mph 67% 0.00 in meteobridge W/m2
14:54 50.2 °F 39.6 °F 30.17 in Calm     67% 0.00 in meteobridge W/m2
14:59 50.0 °F 39.6 °F 30.17 in Calm   3.0 mph 67% 0.00 in meteobridge W/m2
15:04 50.0 °F 39.0 °F 30.17 in Calm   8.0 mph 66% 0.00 in meteobridge W/m2
15:09 50.0 °F 39.6 °F 30.17 in Calm   2.0 mph 67% 0.00 in meteobridge W/m2
15:14 50.0 °F 39.9 °F 30.17 in Calm   2.0 mph 68% 0.00 in meteobridge W/m2
15:19 49.8 °F 39.4 °F 30.18 in Calm   4.0 mph 67% 0.00 in meteobridge W/m2
15:24 49.8 °F 39.4 °F 30.18 in WNW 4.9 mph 6.0 mph 67% 0.00 in meteobridge W/m2
15:29 49.6 °F 38.7 °F 30.18 in NNW 2.0 mph 8.0 mph 66% 0.00 in meteobridge W/m2
15:34 49.5 °F 39.0 °F 30.18 in NW 2.9 mph 6.0 mph 67% 0.00 in meteobridge W/m2
15:39 49.3 °F 38.8 °F 30.18 in Calm   6.0 mph 67% 0.00 in meteobridge W/m2
15:44 49.1 °F 39.0 °F 30.18 in Calm   3.0 mph 68% 0.00 in meteobridge W/m2
15:49 48.9 °F 38.8 °F 30.18 in NNW 2.0 mph 3.0 mph 68% 0.00 in meteobridge W/m2
15:53 48.9 °F 38.8 °F 30.18 in Calm   2.0 mph 68% 0.00 in meteobridge W/m2
15:59 48.7 °F 38.7 °F 30.18 in Calm   6.0 mph 68% 0.00 in meteobridge W/m2
16:04 48.7 °F 39.0 °F 30.18 in NNW 0.9 mph 1.0 mph 69% 0.00 in meteobridge W/m2
16:09 48.7 °F 39.4 °F 30.18 in Calm   1.0 mph 70% 0.00 in meteobridge W/m2
16:14 48.7 °F 39.0 °F 30.18 in Calm   4.0 mph 69% 0.00 in meteobridge W/m2
16:19 48.6 °F 38.5 °F 30.18 in WNW 2.9 mph 6.0 mph 68% 0.00 in meteobridge W/m2
16:24 48.4 °F 38.7 °F 30.19 in WNW 0.9 mph 8.0 mph 69% 0.00 in meteobridge W/m2
16:29 48.4 °F 38.7 °F 30.19 in SW 2.0 mph 6.0 mph 69% 0.00 in meteobridge W/m2
16:34 48.0 °F 38.7 °F 30.19 in Calm     70% 0.00 in meteobridge W/m2
16:39 48.0 °F 38.7 °F 30.19 in Calm   1.0 mph 70% 0.00 in meteobridge W/m2
16:44 47.7 °F 38.3 °F 30.19 in Calm   6.0 mph 70% 0.00 in meteobridge W/m2
16:49 47.5 °F 38.5 °F 30.19 in Calm   4.0 mph 71% 0.00 in meteobridge W/m2
16:54 47.3 °F 38.3 °F 30.19 in Calm   3.0 mph 71% 0.00 in meteobridge W/m2
16:59 46.9 °F 38.1 °F 30.19 in Calm   5.0 mph 71% 0.00 in meteobridge W/m2
17:04 46.9 °F 38.3 °F 30.20 in Calm   2.0 mph 72% 0.00 in meteobridge W/m2
17:09 46.6 °F 38.1 °F 30.20 in Calm   3.0 mph 72% 0.00 in meteobridge W/m2
17:14 46.4 °F 37.9 °F 30.20 in Calm   3.0 mph 72% 0.00 in meteobridge W/m2
17:19 46.2 °F 38.1 °F 30.20 in NW 0.9 mph 1.0 mph 73% 0.00 in meteobridge W/m2
17:24 45.9 °F 37.4 °F 30.20 in Calm     72% 0.00 in meteobridge W/m2
17:29 45.7 °F 37.6 °F 30.20 in Calm     73% 0.00 in meteobridge W/m2
17:34 45.5 °F 37.4 °F 30.20 in Calm   3.0 mph 73% 0.00 in meteobridge W/m2
17:39 45.3 °F 37.6 °F 30.20 in Calm     74% 0.00 in meteobridge W/m2
17:44 45.1 °F 37.4 °F 30.20 in Calm     74% 0.00 in meteobridge W/m2
17:49 44.8 °F 37.0 °F 30.21 in Calm     74% 0.00 in meteobridge W/m2
17:54 44.6 °F 37.2 °F 30.21 in Calm     75% 0.00 in meteobridge W/m2
17:59 44.2 °F 36.9 °F 30.21 in Calm     75% 0.00 in meteobridge W/m2
18:04 43.9 °F 36.5 °F 30.21 in Calm     75% 0.00 in meteobridge W/m2
18:09 43.5 °F 36.1 °F 30.22 in Calm   1.0 mph 75% 0.00 in meteobridge W/m2
18:14 43.3 °F 36.3 °F 30.22 in Calm   2.0 mph 76% 0.00 in meteobridge W/m2
18:19 43.0 °F 36.0 °F 30.22 in Calm   2.0 mph 76% 0.00 in meteobridge W/m2
18:24 42.6 °F 35.6 °F 30.22 in Calm   4.0 mph 76% 0.00 in meteobridge W/m2
18:28 42.6 °F 35.6 °F 30.22 in Calm   4.0 mph 76% 0.00 in meteobridge W/m2
18:34 42.4 °F 35.4 °F 30.22 in Calm   1.0 mph 76% 0.00 in meteobridge W/m2
18:39 42.4 °F 35.4 °F 30.22 in Calm   3.0 mph 76% 0.00 in meteobridge W/m2
18:44 42.4 °F 35.4 °F 30.23 in Calm   6.0 mph 76% 0.00 in meteobridge W/m2
18:49 42.4 °F 35.4 °F 30.23 in Calm   3.0 mph 76% 0.00 in meteobridge W/m2
18:54 42.4 °F 35.1 °F 30.24 in Calm   1.0 mph 75% 0.00 in meteobridge W/m2
18:59 42.4 °F 35.1 °F 30.24 in Calm     75% 0.00 in meteobridge W/m2
19:04 42.4 °F 35.1 °F 30.24 in Calm   2.0 mph 75% 0.00 in meteobridge W/m2
19:09 42.3 °F 34.9 °F 30.24 in Calm   7.0 mph 75% 0.00 in meteobridge W/m2
19:14 42.4 °F 35.1 °F 30.24 in Calm   3.0 mph 75% 0.00 in meteobridge W/m2
19:19 42.3 °F 34.9 °F 30.24 in Calm   4.0 mph 75% 0.00 in meteobridge W/m2
19:24 42.3 °F 34.9 °F 30.25 in Calm   2.0 mph 75% 0.00 in meteobridge W/m2
19:29 42.3 °F 34.9 °F 30.25 in Calm   1.0 mph 75% 0.00 in meteobridge W/m2
19:34 42.3 °F 34.9 °F 30.25 in Calm   2.0 mph 75% 0.00 in meteobridge W/m2
19:39 42.1 °F 35.1 °F 30.25 in Calm     76% 0.00 in meteobridge W/m2
19:44 41.9 °F 34.9 °F 30.26 in Calm   2.0 mph 76% 0.00 in meteobridge W/m2
19:49 41.7 °F 34.7 °F 30.26 in Calm   3.0 mph 76% 0.00 in meteobridge W/m2
19:54 41.5 °F 34.5 °F 30.26 in Calm   1.0 mph 76% 0.00 in meteobridge W/m2
19:59 41.5 °F 34.5 °F 30.25 in Calm   1.0 mph 76% 0.00 in meteobridge W/m2
20:04 41.5 °F 34.5 °F 30.26 in Calm   1.0 mph 76% 0.00 in meteobridge W/m2
20:09 41.5 °F 34.5 °F 30.26 in NNW 2.9 mph 3.0 mph 76% 0.00 in meteobridge W/m2
20:14 41.5 °F 34.5 °F 30.26 in Calm   3.0 mph 76% 0.00 in meteobridge W/m2
20:19 41.5 °F 34.5 °F 30.26 in Calm     76% 0.00 in meteobridge W/m2
20:24 41.7 °F 34.7 °F 30.26 in Calm     76% 0.00 in meteobridge W/m2
20:29 41.7 °F 34.7 °F 30.26 in NW 4.0 mph 10.0 mph 76% 0.00 in meteobridge W/m2
20:34 41.7 °F 34.7 °F 30.26 in Calm   1.0 mph 76% 0.00 in meteobridge W/m2
20:39 41.9 °F 34.9 °F 30.26 in Calm   3.0 mph 76% 0.00 in meteobridge W/m2
20:44 41.9 °F 34.9 °F 30.27 in Calm     76% 0.00 in meteobridge W/m2
20:49 41.7 °F 34.7 °F 30.26 in Calm     76% 0.00 in meteobridge W/m2
20:54 41.7 °F 34.7 °F 30.26 in Calm     76% 0.00 in meteobridge W/m2
20:59 41.5 °F 34.5 °F 30.27 in Calm   7.0 mph 76% 0.00 in meteobridge W/m2
21:04 41.5 °F 34.5 °F 30.27 in Calm   4.0 mph 76% 0.00 in meteobridge W/m2
21:09 41.5 °F 34.5 °F 30.27 in WNW 4.0 mph 4.0 mph 76% 0.00 in meteobridge W/m2
21:14 41.4 °F 34.3 °F 30.26 in Calm   4.0 mph 76% 0.00 in meteobridge W/m2
21:19 41.4 °F 34.3 °F 30.26 in Calm     76% 0.00 in meteobridge W/m2
21:24 41.2 °F 34.2 °F 30.26 in WNW 2.9 mph 3.0 mph 76% 0.00 in meteobridge W/m2
21:29 41.0 °F 34.0 °F 30.26 in Calm   1.0 mph 76% 0.00 in meteobridge W/m2
21:34 40.8 °F 33.8 °F 30.26 in Calm   2.0 mph 76% 0.00 in meteobridge W/m2
21:39 40.6 °F 33.6 °F 30.26 in Calm   3.0 mph 76% 0.00 in meteobridge W/m2
21:44 40.5 °F 33.4 °F 30.26 in Calm   5.0 mph 76% 0.00 in meteobridge W/m2
21:49 40.5 °F 33.4 °F 30.26 in Calm   3.0 mph 76% 0.00 in meteobridge W/m2
21:54 40.3 °F 33.3 °F 30.26 in Calm   10.0 mph 76% 0.00 in meteobridge W/m2
21:59 40.1 °F 33.1 °F 30.26 in NNW 6.0 mph 6.0 mph 76% 0.00 in meteobridge W/m2
22:04 39.9 °F 32.9 °F 30.26 in Calm     76% 0.00 in meteobridge W/m2
22:09 39.7 °F 32.7 °F 30.26 in Calm   2.0 mph 76% 0.00 in meteobridge W/m2
22:14 39.6 °F 32.5 °F 30.26 in Calm   1.0 mph 76% 0.00 in meteobridge W/m2
22:19 39.4 °F 32.5 °F 30.26 in NNE 2.0 mph 2.0 mph 76% 0.00 in meteobridge W/m2
22:24 39.2 °F 32.4 °F 30.26 in Calm   2.0 mph 76% 0.00 in meteobridge W/m2
22:29 39.0 °F 32.2 °F 30.27 in Calm   1.0 mph 76% 0.00 in meteobridge W/m2
22:34 39.0 °F 32.2 °F 30.26 in Calm   5.0 mph 76% 0.00 in meteobridge W/m2
22:39 39.0 °F 32.2 °F 30.26 in Calm   5.0 mph 76% 0.00 in meteobridge W/m2
22:44 38.8 °F 32.0 °F 30.26 in NNW 0.9 mph 1.0 mph 76% 0.00 in meteobridge W/m2
22:49 38.8 °F 32.0 °F 30.27 in Calm   3.0 mph 76% 0.00 in meteobridge W/m2
22:54 38.8 °F 32.0 °F 30.27 in NW 2.9 mph 5.0 mph 76% 0.00 in meteobridge W/m2
22:59 39.0 °F 32.2 °F 30.27 in Calm   3.0 mph 76% 0.00 in meteobridge W/m2
23:04 38.8 °F 32.0 °F 30.27 in Calm   1.0 mph 76% 0.00 in meteobridge W/m2
23:09 38.8 °F 32.0 °F 30.27 in Calm     76% 0.00 in meteobridge W/m2
23:14 38.7 °F 31.8 °F 30.27 in Calm   1.0 mph 76% 0.00 in meteobridge W/m2
23:19 38.7 °F 31.8 °F 30.27 in Calm     76% 0.00 in meteobridge W/m2
23:24 38.5 °F 31.6 °F 30.27 in Calm     76% 0.00 in meteobridge W/m2
23:29 38.5 °F 31.6 °F 30.27 in West 0.9 mph 1.0 mph 76% 0.00 in meteobridge W/m2
23:34 38.5 °F 31.6 °F 30.27 in Calm   1.0 mph 76% 0.00 in meteobridge W/m2
23:39 38.5 °F 31.6 °F 30.27 in Calm   2.0 mph 76% 0.00 in meteobridge W/m2
23:44 38.5 °F 31.6 °F 30.27 in Calm   1.0 mph 76% 0.00 in meteobridge W/m2
23:49 38.5 °F 31.6 °F 30.27 in Calm   4.0 mph 76% 0.00 in meteobridge W/m2
23:54 38.7 °F 32.0 °F 30.27 in NW 0.9 mph 3.0 mph 77% 0.00 in meteobridge W/m2
23:59 38.7 °F 32.0 °F 30.27 in Calm   2.0 mph 77% 0.00 in meteobridge W/m2
EllijayWeather
Compliments of Weather Underground - 2.5 mb